Tracking 26894 objects as of 2-Feb-2023
HD Live streaming from Space Station
objects crossing your sky now

NSAT 110

Track NSAT 110 now!
NSAT 110 is classified as:


NORAD ID: 26559
Int'l Code: 2000-060A
Perigee: 36,094.0 km
Apogee: 36,111.4 km
Inclination: 3.6 °
Period: 1,451.9 minutes
Semi major axis: 42473 km
RCS: 12.5892 m2 (large)
Launch date: October 6, 2000
Source: Japan (JPN)
Launch site: FRENCH GUIANA (FRGUI)

24 Ku-band; voice and video communications to Japan.
Your satellite tracking list
Your tracking list is empty




NASA's NSSDC Master Catalog

Two Line Element Set (TLE):
1 26559U 00060A   23032.21905244  .00000073  00000-0  00000-0 0  9990
2 26559   3.6379  84.3853 0002048 359.4649 169.8259  0.99179860 81606
Source of the keplerian elements: AFSPC